{"data":{"norad_id":69895,"intl_designator":"2026-156AC","name":"MIKROGLOB-1 (PIRX-1)","alt_names":[],"object_type":"PAYLOAD","status":"ACTIVE","operator":null,"country":"POL","launch_date":"2026-07-07","launch_site_code":"AFWTR","launch_vehicle":null,"mission":null,"orbit_class":"UNKNOWN","rcs_meters":null,"size_class":null,"mass_kg":null,"dimensions":null,"purposes":[],"wikipedia_slug":null,"has_3d_model":false,"image_url":null,"decayed_at":null,"tle_current":{"epoch":"2026-09-20T03:21:53.813952Z","epoch_age_seconds":52747,"freshness":"FRESH","line1":"1 69895U 26156AC  26263.14020618  .00000742  00000+0  79404-4 0  9998","line2":"2 69895  97.7430 162.2995 0004803 253.5157 106.5534 14.91653884 11157","mean_motion":14.91653884,"eccentricity":0.0004803,"inclination_deg":97.743,"raan_deg":162.2995,"arg_perigee_deg":253.5157,"mean_anomaly_deg":106.5534,"bstar":7.9404e-5,"rev_number":1115,"period_min":96.537140113128,"perigee_km":589.43006119276,"apogee_km":596.12632232596,"semimajor_km":6970.9151917594,"source":"CELESTRAK","updated_at":"2026-09-20T09:00:25.169860Z"}}}